Location: Mansoura
(31.0409°N, 31.3785°E)
Time: 08:06:10
(UTC+03:00)

ARIANE 6 FM1 Upper Stage - Visible Passes

Search period start: 18 September 2024 00:00
Search period end: 28 September 2024 00:00
Orbit: 566 x 594 km, 62.0° (Epoch: 17 September)

Date Brightness Start Highest point End Pass type
(mag) Time Alt. Az. Time Alt. Az. Time Alt. Az.
18 Sep 5.2 05:29:17 10° N 05:32:51 24° NE 05:36:22 10° ESE visible
18 Sep 4.6 19:28:28 10° SE 19:30:04 12° ESE 19:31:19 11° E visible
18 Sep 4.0 21:04:50 10° SW 21:07:49 37° W 21:07:49 37° W visible
19 Sep 4.2 05:33:34 10° NNW 05:37:41 39° NE 05:41:46 10° SE visible
19 Sep 3.9 19:31:21 10° SSE 19:34:35 21° ESE 19:37:51 10° ENE visible
19 Sep 4.7 21:10:03 10° WSW 21:13:43 28° NW 21:14:59 24° NNW visible
20 Sep 3.1 05:38:04 10° NNW 05:42:26 70° ENE 05:46:45 10° SE visible
20 Sep 3.2 19:35:13 10° S 19:39:08 38° ESE 19:43:07 10° NE visible
20 Sep 5.5 21:15:44 10° W 21:18:35 17° NW 21:21:29 10° N visible
21 Sep 5.9 04:05:41 10° NNE 04:07:22 12° NE 04:09:03 10° ENE visible
21 Sep 2.7 05:42:46 10° NW 05:47:06 65° WSW 05:51:23 10° SSE visible
21 Sep 2.6 19:39:32 10° SSW 19:43:44 71° ESE 19:48:01 10° NE visible
21 Sep 5.9 21:22:30 10° WNW 21:23:31 11° NW 21:24:33 10° NNW visible
22 Sep 5.3 04:10:23 15° NNE 04:12:17 19° NE 04:15:25 10° E visible
22 Sep 3.3 05:47:42 10° NW 05:51:41 35° WSW 05:55:39 10° S visible
22 Sep 3.2 19:44:12 10° SW 19:48:23 63° WNW 19:52:39 10° NNE visible
23 Sep 4.6 04:17:37 30° ENE 04:17:37 30° ENE 04:20:58 10° ESE visible
23 Sep 4.1 05:54:06 15° WNW 05:56:12 20° WSW 05:59:24 10° SSW visible
23 Sep 4.4 19:49:12 10° WSW 19:53:06 35° NW 19:57:04 10° NNE visible
24 Sep 5.0 04:24:49 18° SE 04:24:49 18° SE 04:26:04 10° SE visible
24 Sep 4.7 06:01:17 11° WSW 06:01:17 11° WSW 06:02:00 10° SW visible
24 Sep 5.3 19:54:34 10° WSW 19:57:52 22° NW 20:01:13 10° N visible
25 Sep 5.7 20:00:33 10° WNW 20:02:42 14° NW 20:04:52 10° NNW visible
